Regional Weather Roundup
Issued by NWS Upton, NY

Current Version | Previous Version | Text Only | Print | Product List | Glossary On
Versions: 1 2 3 4 5 6 7 8 9 10 11 12 13 14 15 16 17 18 19 20 21 22 23 24 25 26 27
000
ASUS41 KOKX 152309
RWROKX

REGIONAL WEATHER ROUNDUP
NATIONAL WEATHER SERVICE NEW YORK NY
700 PM EDT TUE AUG 15 2017

NOTE: "FAIR" INDICATES FEW OR NO CLOUDS BELOW 12,000 FEET WITH NO
SIGNIFICANT WEATHER AND/OR OBSTRUCTIONS TO VISIBILITY.

NYZ071-072-176-178-NJZ106-104-160000-
NEW YORK CITY METRO AREA

CITY           SKY/WX    TMP DP  RH WIND       PRES   REMARKS
Central Park   CLOUDY    73  70  90 CALM      29.93R
Bronx Bot Gard   N/A     72  70  94 E1        29.93R
LaGuardia APRT LGT RAIN  73  72  96 S9        29.89S
Kennedy INTL   CLOUDY    73  72  96 SE5       29.91S
Breezy Point     N/A     72 N/A N/A SE3         N/A
Newark/Liberty LGT RAIN  74  70  87 CALM      29.90S
Teterboro      DRIZZLE   75  70  84 VRB6      29.89R
$$

NYZ177-179-078>081-160000-
LONG ISLAND NEW YORK

CITY           SKY/WX    TMP DP  RH WIND       PRES   REMARKS
Jones Beach      N/A     72 N/A N/A S6          N/A
Matinecock PT    N/A     73 N/A N/A S1          N/A
Farmingdale    CLOUDY    73  69  87 S5        29.91S
MacArthur/ISP  CLOUDY    73  69  87 SE5       29.91S
Shirley        CLOUDY    72  69  90 SE5       29.91F
Mt Sinai Harb    N/A    N/A N/A N/A S5          N/A
Westhampton    CLOUDY    70  67  90 SE3       29.93S
East Hampton   CLOUDY    70  67  92 S3        29.92S
Montauk          N/A     71  69  93 VRB3      29.94S
$$

NYZ052-065-067-160000-
HUDSON VALLEY

CITY           SKY/WX    TMP DP  RH WIND       PRES   REMARKS
White Plains   CLOUDY    72  69  90 S3        29.91R
Larchmont Harb   N/A     72 N/A N/A S3          N/A
Croton On Huds   N/A     75 N/A N/A S3          N/A
Newburgh       PTCLDY    75  70  83 SW8       29.90S
Montgomery     PTCLDY    76  70  82 S5        29.88R
Poughkeepsie   PTCLDY    76  67  73 VRB3      29.87R
Albany         MOCLDY    77  66  68 S5        29.86R
$$

NJZ001-105-106-008-010-013-015-019>022-104-160000-
NEW JERSEY

CITY           SKY/WX    TMP DP  RH WIND       PRES   REMARKS
Newark/Liberty LGT RAIN  74  70  87 CALM      29.90S
Teterboro      DRIZZLE   75  70  84 VRB6      29.89R
Caldwell       MOCLDY    74  71  91 S3        29.90F
Somerville     MOCLDY    75  72  90 CALM      29.88F
Linden         CLOUDY    73  70  89 CALM      29.90S
Perth Amboy      N/A     72 N/A N/A E3          N/A
Sussex         LGT RAIN  75  70  84 SW6       29.89S
Andover          N/A     75  69  81 CALM      29.90F
Trenton        CLOUDY    76  72  87 N3        29.90R
Millville      LGT RAIN  77  76  96 NE3       29.89S
Atlantic City  LGT RAIN  76  74  93 E5        29.89F
Wrightstown    LGT RAIN  75  73  94 E5        29.87S
Toms River     CLOUDY    76  74  93 SE3       29.91S
Belmar         CLOUDY    74  72  93 E5        29.92R
$$

PAZ047>061-062-071-160000-
EASTERN PENNSYLVANIA

CITY           SKY/WX    TMP DP  RH WIND       PRES   REMARKS
Philadelphia   CLOUDY    77  73  87 CALM      29.90R
Allentown      MOSUNNY   76  68  76 S6        29.89F
Scranton       SUNNY     78  64  61 SW7       29.90R
$$

CTZ002-004>006-009-010-012-RIZ004-006-007-MAZ004-011-015-160000-
SOUTHERN NEW ENGLAND
 IN CT

CITY           SKY/WX    TMP DP  RH WIND       PRES   REMARKS
Bradley INTL   CLOUDY    74  67  78 S10       29.89S
Hartford       CLOUDY    75  67  76 S9        29.90R
Danbury        CLOUDY    73  68  84 S7        29.92R
Wtrbury/Oxford CLOUDY    71  67  87 S7        29.93R
Norwalk Harbor   N/A     70 N/A N/A S3          N/A
Bridgeport     CLOUDY    73  69  87 S7        29.91R
Meriden        CLOUDY    71  67  87 S9        29.91R
New Haven      CLOUDY    72  68  87 S7        29.91S
Chester        NOT AVBL
Groton         CLOUDY    70  67  90 S3        29.92R
Wilimantic     CLOUDY    72  67  84 S6        29.92R

 IN RI

CITY           SKY/WX    TMP DP  RH WIND       PRES   REMARKS
Providence     CLOUDY    71  67  87 S8        29.92S
Block Island   CLOUDY    70  68  93 S5        29.93R
Westerly       CLOUDY    71  66  84 S6        29.93S
 IN MA

CITY           SKY/WX    TMP DP  RH WIND       PRES   REMARKS
Boston         CLOUDY    73  62  68 S15       29.88S
Worcester      MOCLDY    69  62  78 S9        29.92S
Westfield      CLOUDY    73  68  84 S6        29.88R
Provincetown   CLOUDY    70  66  87 SW10      29.92R
Nantucket      CLOUDY    66  64  93 CALM      29.93S
$$

ANZ330-335-338-340-345-350-353-355-160000-
COASTAL MARINE OBSERVATIONS


STATION/POSITION TIME  SKY/WX   TEMP    WIND        PRES    VSBY  WAVE
                                AIR SEA DIR/SP/G                  HT/PER
                 (UTC)          (F)     (DEG/KT/KT) (MB)    (MI)  (FT/S)
NY HARB ENTRANCE 2150            73 75  130/  4/  6 1012.0          5/11
GREAT SOUTH BAY  2230            72 77  150/  6/  8   N/A
23 SSW MONTAUK P 2150            71 70              1013.3          4/ 9
15 E BARNEGAT LI 2230               76                N/A           5/11
HUDSON CANYON    2150            73 74   60/ 10/ 10 1011.5          4/10
KINGS POINT      2230            73 73  200/  5/  7 1012.4
EXECUTION ROCKS  NOT AVBL
WESTERN LI SOUND NOT AVBL
CENTRAL LI SOUND NOT AVBL
EASTERN LI SOUND NOT AVBL
ROBBINS REEF     2230                   170/  5/  6 1013.2
$$


>>>>>>>>>>>>>>>>>>>>>>>>>>>> KEY <<<<<<<<<<<<<<<<<<<<<<<<<<<
>                                                          <
>     SKY/WX - Sky Condition/Present Weather               <
>     TMP    - Temperature in Fahrenheit                   <
>     DP     - Dew Point in Fahrenheit                     <
>     RH     - Relative Humidity in Percent                <
>     WIND   - Direction (from) and Speed in MPH           <
>     PRES   - Mean Sea Level Pressure (inches of Hg)      <
>     WCI    - Wind Chill Index                            <
>     VSB    - VISIBILITY IN MILES                         <
>     HX     - HEAT INDEX                                  <
>     TC     - TEMPERATURE IN CELSIUS                      <
>     VRB    - VARIABLE WIND DIRECTION                     <
>                                                          <
>>>>>>>>>>>>>>>>>>>>>>>>>>>> KEY <<<<<<<<<<<<<<<<<<<<<<<<<<<




USA.gov is the U.S. government's official web portal to all federal, state and local government web resources and services.